sat.trackr.live / text

‹ back to catalog

STARLINK-35357

NORAD 65799 · 2025-218J

PAYLOAD ACTIVE UNKNOWN

§ Identity

Operator
Country
US
Launch date
2025-09-26
Launch site
AFWTR
Launch vehicle
Mass (kg)
RCS (m²)

Purposes: comms

External: N2YO · Heavens-Above · Gunter

§ Orbital elements

Epoch: 2026-05-25T03:39:07.627104Z

Period
95.64 min
Inclination
97.4502°
Eccentricity
0.0002520
Mean motion
15.05647767 rev/d
Perigee alt
547.8 km
Apogee alt
551.3 km
Semi-major
6,927.7 km
B*
5.8218e-4
RAAN
7.9195°
Arg perigee
86.2164°
Mean anomaly
273.9351°
Rev number
3,647

§ Raw data

STARLINK-353571 65799U 25218J   26145.15217161  .00008351  00000+0  58218-3 0  99992 65799  97.4502   7.9195 0002520  86.2164 273.9351 15.05647767 36470

JSON: /api/v1/satellites/65799 · /tle

For live sub-satellite position, see the globe view (requires WebGL).

§ Visibility from observer

Set your observer location to see the next 7 days of passes ≥ 10°. The values pass through the URL so the page stays shareable.

No JS? Fill the form by hand. The geolocation button needs JavaScript.